Regional Weather Roundup
Issued by NWS

Home | Current Version | Previous Version | Graphics & Text | Print | Product List | Glossary On
Versions: 1 2 3 4 5 6 7 8 9 10 11 12 13 14 15 16 17 18 19 20 21 22 23 24 25 26 27 28 29 30 31 32 33 34 35 36 37 38 39 40 41 42 43 44 45 46 47 48 49 50
000
ASUS43 KMKX 280021
RWRWI

WISCONSIN REGIONAL WEATHER ROUNDUP
NATIONAL WEATHER SERVICE MILWAUKEE/SULLIVAN WI
600 PM CST SAT DEC 27 2014

NOTE: "FAIR" INDICATES FEW OR NO CLOUDS BELOW 12,000 FEET WITH NO
SIGNIFICANT WEATHER AND/OR OBSTRUCTIONS TO VISIBILITY.

WIZ001-002-006>008-014>016-023>028-280100-
NORTHWEST WISCONSIN

CITY           SKY/WX    TMP DP  RH WIND       PRES   REMARKS
SUPERIOR ARPT  CLOUDY    24  10  56 SW3       30.02R
6HR MIN TEMP:  23; 6HR MAX TEMP:  27;

ASHLAND        CLEAR     15  11  83 SW6       30.01R WCI   6
6HR MIN TEMP:  14; 6HR MAX TEMP:  26;

HAYWARD        FAIR      14  11  87 S6        30.01R WCI   5
6HR MIN TEMP:  14; 6HR MAX TEMP:  24;

SIREN          FAIR      19  12  74 SW7       30.05R WCI  10
6HR MIN TEMP:  19; 6HR MAX TEMP:  26;

CUMBERLAND     CLEAR     10   7  85 S5        30.03R WCI   2
RICE LAKE      CLEAR     17  13  86 CALM      30.06S
6HR MIN TEMP:  17; 6HR MAX TEMP:  25;

CHETEK         CLEAR     14  12  94 CALM      30.06R
6HR MIN TEMP:  14; 6HR MAX TEMP:  26;

LADYSMITH      CLEAR     17  13  87 SW6       30.05R WCI   8
6HR MIN TEMP:  18; 6HR MAX TEMP:  28;

EAU CLAIRE     CLEAR     16  12  84 SW5       30.08R WCI   9
6HR MIN TEMP:  16; 6HR MAX TEMP:  27;

MENOMONIE      CLEAR     17  14  87 S3        30.08F
6HR MIN TEMP:  16; 6HR MAX TEMP:  27;

NEW RICHMOND   CLEAR     16  11  83 SW3       30.08S
6HR MIN TEMP:  15; 6HR MAX TEMP:  26;

OSCEOLA        CLEAR     18  13  80 SW7       30.11R WCI   9
6HR MIN TEMP:  18; 6HR MAX TEMP:  26;

$$

WIZ003>005-009-010-017-018-280100-
NORTH CENTRAL WISCONSIN

CITY           SKY/WX    TMP DP  RH WIND       PRES   REMARKS
MANITOWISH WTR MOCLDY    20  18  89 W10       29.95R WCI   9
6HR MIN TEMP:  20; 6HR MAX TEMP:  29;

ARBOR VITAE    PTCLDY    23  19  85 W3        29.95R
6HR MIN TEMP:  23; 6HR MAX TEMP:  32;

WOODRUFF       PTCLDY    23  19  85 W3        29.95R
6HR MIN TEMP:  23; 6HR MAX TEMP:  32;

RHINELANDER    CLOUDY    24  20  84 W10       29.95R WCI  14
6HR MIN TEMP:  24; 6HR MAX TEMP:  30; 6HR PCP: TRACE;

EAGLE RIVER    CLOUDY    25  20  83 W7        29.93S WCI  17
6HR MIN TEMP:  25; 6HR MAX TEMP:  30;

LAND O LAKES   CLOUDY    25  22  89 W7        29.93R WCI  17
6HR MIN TEMP:  25; 6HR MAX TEMP:  30;

PHILLIPS       FAIR      17  14  88 W3        29.99R
6HR MIN TEMP:  18; 6HR MAX TEMP:  29;

TOMAHAWK       CLOUDY    23  19  85 W6        29.98R WCI  16
6HR MIN TEMP:  23; 6HR MAX TEMP:  31;

MEDFORD        CLOUDY    21  17  84 W12       30.01R WCI   9
6HR MIN TEMP:  21; 6HR MAX TEMP:  30;

MERRILL        CLOUDY    26  20  80 W7        30.00R WCI  18
6HR MIN TEMP:  26; 6HR MAX TEMP:  32;

$$

WIZ029-030-035-036-043>047-280100-
CENTRAL WISCONSIN

CITY           SKY/WX    TMP DP  RH WIND       PRES   REMARKS
WAUSAU         CLOUDY    26  20  77 W9G18     30.00R WCI  17
6HR MIN TEMP:  26; 6HR MAX TEMP:  32; 6HR PCP: TRACE;

MOSINEE        CLOUDY    27  25  93 W10G17    30.02R WCI  17
MARSHFIELD     CLOUDY    24  19  81 NW14G21   30.03R WCI  12
6HR MIN TEMP:  24; 6HR MAX TEMP:  32;

STEVENS POINT  CLOUDY    25  21  83 W7G18     30.03R WCI  18
6HR MIN TEMP:  25; 6HR MAX TEMP:  31; 6HR PCP:  0.01;

WAUPACA        CLOUDY    32  25  76 NW12      30.03R WCI  23
6HR MIN TEMP:  32; 6HR MAX TEMP:  36;

WAUTOMA        CLOUDY    30  25  82 W17       30.04R WCI  18
6HR MIN TEMP:  30; 6HR MAX TEMP:  34;

WISC RAPIDS    CLOUDY    27  21  78 W10       30.06R WCI  17
6HR MIN TEMP:  27; 6HR MAX TEMP:  32;

CAMP DOUGLAS   CLOUDY    27  25  93 W13       30.08R WCI  16
6HR MIN TEMP:  27; 6HR MAX TEMP:  31;

$$

WIZ011>013-019>022-031-037>040-048>050-280100-
NORTHEAST WISCONSIN

CITY           SKY/WX    TMP DP  RH WIND       PRES   REMARKS
ANTIGO         CLOUDY    26  22  85 W13       29.97R WCI  15
6HR MIN TEMP:  26; 6HR MAX TEMP:  31;

SHAWANO        CLOUDY    34  28  79 W9        29.99R WCI  26
6HR MIN TEMP:  34; 6HR MAX TEMP:  35;

OCONTO         CLOUDY    32  32 100 W3        29.97R
6HR MIN TEMP:  32; 6HR MAX TEMP:  33;

STURGEON BAY   CLOUDY    34  28  80 W6        29.99R WCI  29
6HR MIN TEMP:  32; 6HR MAX TEMP:  34;

GREEN BAY      CLOUDY    34  30  85 W7        29.99R WCI  28
6HR MIN TEMP:  34; 6HR MAX TEMP:  37;

MANITOWOC      MIX PCPN  34  34 100 NW12      29.99R WCI  25
6HR MIN TEMP:  34; 6HR MAX TEMP:  41; 6HR PCP: TRACE;

APPLETON       MOCLDY    34  30  86 W12       29.99R WCI  25
CLINTONVILLE   CLOUDY    32  27  80 W10G20    30.00R WCI  24
OSHKOSH        MOCLDY    32  27  81 W9        30.00R WCI  24
6HR MIN TEMP:  32; 6HR MAX TEMP:  38;

$$

WIZ032>034-041-042-053>061-280100-
SOUTHWEST WISCONSIN

CITY           SKY/WX    TMP DP  RH WIND       PRES   REMARKS
LA CROSSE      CLOUDY    25  18  74 W12       30.13R WCI  14
6HR MIN TEMP:  25; 6HR MAX TEMP:  31;

SPARTA         CLOUDY    26  20  77 W9        30.11R WCI  16
6HR MIN TEMP:  26; 6HR MAX TEMP:  31;

VIROQUA        CLOUDY    24  24  97 W9        30.09R WCI  15
6HR MIN TEMP:  24; 6HR MAX TEMP:  29;

BOSCOBEL       CLOUDY    29  22  75 W9        30.13R WCI  20
6HR MIN TEMP:  29; 6HR MAX TEMP:  33;

PRAIRIE DU CHI CLOUDY    26  19  77 W10       30.15R WCI  16
6HR MIN TEMP:  26; 6HR MAX TEMP:  33;

PLATTEVILLE    CLOUDY    29  25  85 W12       30.13R WCI  19
6HR MIN TEMP:  29; 6HR MAX TEMP:  32;

$$

WIZ056-057-062-063-064-067-068-280100-
SOUTH CENTRAL WISCONSIN

CITY           SKY/WX    TMP DP  RH WIND       PRES   REMARKS
REEDSBURG      CLOUDY    29  24  82 NW8       30.06S WCI  21
6HR MIN TEMP:  29; 6HR MAX TEMP:  32;

BARABOO/DELLS  CLOUDY    29  23  79 NW7       30.06R WCI  22
6HR MIN TEMP:  29; 6HR MAX TEMP:  32;

LONE ROCK      CLOUDY    34  23  64 NW9       30.09S WCI  27
6HR MIN TEMP:  34; 6HR MAX TEMP:  36;

MINERAL POINT  CLOUDY    32  27  80 W16       30.08R WCI  21
MADISON        MOCLDY    31  25  78 W9        30.06R WCI  23
6HR MIN TEMP:  31; 6HR MAX TEMP:  36;

MIDDLETON      CLOUDY    32  26  80 W9G17     30.07R WCI  24
6HR MIN TEMP:  32; 6HR MAX TEMP:  37;

WATERTOWN      CLOUDY    32  28  86 W9        30.03S WCI  24
6HR MIN TEMP:  32; 6HR MAX TEMP:  36;

MONROE         MOCLDY    30  27  86 W13G20    30.07R WCI  20
JANESVILLE     CLOUDY    34  27  75 W12G17    30.06R WCI  25
$$

WIZ051-052-058>065-066-070>072-280100-
SOUTHEAST WISCONSIN

CITY           SKY/WX    TMP DP  RH WIND       PRES   REMARKS
MILWAUKEE      CLOUDY    35  25  66 NW15      30.03R WCI  25
6HR MIN TEMP:  35; 6HR MAX TEMP:  42;

WAUKESHA       CLOUDY    32  27  80 W13       30.03R WCI  22
MILWAUKEE/TIMM CLOUDY    34  25  69 NW13G22   30.03  WCI  25
RACINE         CLOUDY    35  26  69 W13G20    30.04R WCI  26
6HR MIN TEMP:  35; 6HR MAX TEMP:  43;

BURLINGTON     CLOUDY    32  26  77 W8        30.04S WCI  25
6HR MIN TEMP:  32; 6HR MAX TEMP:  36;

KENOSHA        CLOUDY    34  27  75 W14G22    30.03R WCI  25
6HR MIN TEMP:  34; 6HR MAX TEMP:  41;

FOND DU LAC    CLOUDY    32  27  81 W14       30.01R WCI  22
6HR MIN TEMP:  32; 6HR MAX TEMP:  39;

SHEBOYGAN      CLOUDY    34  29  82 W10G20    30.00R WCI  26
6HR MIN TEMP:  34; 6HR MAX TEMP:  43;

WEST BEND      CLOUDY    32  28  86 W13G20    30.01R WCI  22
JUNEAU         CLOUDY    31  27  84 W6        30.04R WCI  25
6HR MIN TEMP:  31; 6HR MAX TEMP:  36;

$$

LSZ147-162-280100-
LAKE SUPERIOR

STATION/POSITION TIME  TEMP    WIND        PRES    WAVE
                       AIR SEA DIR/SP/G            HT/PER
                 (UTC) (F)     (DEG/KT/KT) (MB)    (FT/S)
DEVILS ISLAND    0000   26     280/ 21/ 26 1016.5R
PORT WING        2340   22     190/  6/  7 1016.6R
SAXON HARBOR     2300   22      CALM  /  3 1016.3R
$$

LMZ867-665-643>646-280100-
LAKE MICHIGAN

STATION/POSITION TIME  TEMP    WIND        PRES    WAVE



USA.gov is the U.S. government's official web portal to all federal, state and local government web resources and services.